www.pogodaiklimat.ru
ПОГОДА в Норт-Бее
Время
(UTC), дата
09 27.05
12 27.05
15 27.05
18 27.05
21 27.05
00 28.05
03 28.05
06 28.05
09 28.05
12 28.05
15 28.05
18 28.05
21 28.05
00 29.05
03 29.05
06 29.05
09 29.05
12 29.05
15 29.05
18 29.05
21 29.05
00 30.05
03 30.05
06 30.05
09 30.05
12 30.05
15 30.05
18 30.05
21 30.05
00 31.05
03 31.05
06 31.05
09 31.05
12 31.05
15 31.05
18 31.05
21 31.05
00 1.06
03 1.06
06 1.06
09 1.06
12 1.06
15 1.06
18 1.06
21 1.06
00 2.06
03 2.06
06 2.06
09 2.06
12 2.06
15 2.06
18 2.06
21 2.06
00 3.06
03 3.06
06 3.06
Ветер
(напр.,м/с)
Видим. Явления Облачность Т
(С)
Тd
(С)
f
(%)
Тe
(С)
Тes
(С)
Комфортность P
(гПа)
Po
(гПа)
Тmin
(С)
Tmax
(С)
R
(мм)
R24
(мм)
S
(см)
ЮВ 3 16 км ясно +18.8 +16.6 87 +20 +20 1017.4 973.9
Ю 3 16 км ясно +22.4 +18.6 79 +28 +31 душно 1018.0 974.5 +17.1 +30.3
ЮЗ 6 16 км ясно +27.6 +18.5 58 +33 +39 очень
душно
1017.7 974.2
ЮЗ 7 16 км ясно +30.9 +15.4 39 +33 +38 душно 1016.6 973.1 +17.1 +31.0
ЮЗ 7 16 км ясно +30.4 +14.1 37 +32 +34 жарко 1014.8 971.4
ЮЗ 4 16 км 5/0 2000 м
[]
+27.9 +14.0 43 +30 +30 жарко 1015.1 971.7 +17.1 +32.2
Ю 3 16 км ясно +22.3 +14.3 61 +26 +26 жарко 1015.8 972.4
Ю 2 16 км 10/0
[]
+20.3 +15.4 73 +24 +24 комфорт 1015.3 972.0 +17.1 +32.2 211
ЮВ 3 16 км 10/0
[]
+19.1 +15.4 79 +21 +21 комфорт 1015.0 971.6
Ю 3 16 км 10/0
[]
+20.6 +15.4 72 +24 +25 комфорт 1014.4 971.0 +18.6 +32.2
ЮЗ 3 16 км 9/9 1000 м
[]
+23.5 +17.0 67 +27 +28 душно 1013.5 970.1
ЮЗ 5 16 км 9/0
[]
+26.4 +17.5 58 +31 +36 душно 1011.5 968.2 +18.6 +26.8
Ю 5 12 км слаб. дождь {осадки} 10/10 200 м
[]
+20.1 +19.3 95 +24 +24 комфорт 1011.1 967.5
ЮЗ 3 12 км слаб. дождь {осадки} 10/10 100 м
[]
+19.5 +19.2 98 +22 +22 комфорт 1009.6 966.1 +18.6 +26.8 13 12.8
Ю 6 16 км {осадки} 9/9 200 м
[]
+18.5 +17.9 96 +19 +19 1007.9 964.6
Ю 4 16 км 10/10 100 м
[]
+18.1 +17.6 97 +18 +18 1006.5 963.3 +18.0 +26.8 0.3 13.0 201
Ю 5 2800 м слаб. дождь {осадки} 10/10 50 м
[]
+18.1 +17.9 99 +18 +18 1005.5 962.1
З 4 3600 м слаб. дождь {осадки} 10/10 50 м
[]
+16.5 +16.3 99 +16 +16 1007.1 963.6 +16.4 +26.8 7 19.5
СЗ 4 4000 м слаб. дождь {осадки} 10/10 100 м
[]
+16.1 +15.6 97 +15 +15 1008.1 964.5
С 4 6000 м дождь {осадки} 10/10 100 м
[]
+15.8 +15.2 96 +15 +15 1007.1 963.5 +15.7 +18.5 3 22.8
С 6 16 км слаб. дождь {осадки} 10/10 300 м
[]
+12.6 +11.7 94 +10 +10 1008.1 964.3
С 4 16 км слаб. дождь {осадки} 10/10 300 м
[]
+11.4 +10.6 95 +9 +9 1010.5 966.5 +11.3 +17.5 7 17.0
С 2 16 км {осадки} 10/10 1000 м
[]
+10.6 +10.2 97 +9 +9 1011.8 967.7
С 1 300 м туман н/о +8.9 +8.9 100 +8 +8 1012.5 968.3 +8.8 +18.5 0.8 17.5 211
В 1 16 км 10/0 2000 м
[]
+8.5 +8.5 100 +9 +9 1012.7 968.3
Ю 2 16 км 10/10 100 м
[]
+10.5 +10.5 100 +9 +9 1012.4 968.1 +7.8 +18.5 11.0
С 7 4800 м слаб. дождь {осадки} 10/10 200 м
[]
+7.3 +6.9 97 +2 +2 1012.8 968.3
С 7 16 км {осадки} 10/10 200 м
[]
+5.4 +3.8 89 -0 -0 1015.8 971.0 +5.1 +10.9 34 41.6
С 3 16 км 10/10 600 м
[]
+8.4 +4.0 74 +6 +6 1017.1 972.4
С 4 16 км {осадки} 10/10 600 м
[]
+6.4 +4.6 88 +3 +3 1018.4 973.6 +5.0 +10.9 0.3 34.8
С 5 16 км 10/10 1500 м
[]
+4.3 +2.6 89 -1 -1 1020.3 975.2
С 2 16 км ясно +1.3 +0.4 94 -2 -2 1021.3 976.0 +1.3 +10.9 34.1 161
СЗ 1 16 км 10/10 1500 м
[]
+2.3 +1.1 92 0 0 1021.6 976.4
СЗ 5 16 км 10/10 1500 м
[]
+4.1 +2.0 86 -1 -1 1023.2 977.9 +0.8 +10.9 34.1
СЗ 8 16 км 9/9 1000 м
[]
+7.5 -1.4 53 +3 +3 1023.3 978.1
З 5 16 км 10/10 1000 м
[]
+10.0 -1.0 46 +8 +8 1022.6 977.4 +0.8 +10.4 0.2
ЮЗ 6 16 км 9/9 600 м
[]
+9.3 +4.0 69 +6 +6 1022.2 977.0
ЮЗ 3 16 км 5/5 1500 м
[]
+7.7 +4.8 82 +5 +6 1022.1 976.9 +0.8 +11.0
В 1 16 км {осадки} 3/3 600 м
[]
+4.6 +4.5 99 +4 +4 1022.8 977.6
В 1 16 км ясно +3.0 +3.0 100 +2 +2 1022.0 976.9 +0.8 +11.0 6 6.1 171
ЮЗ 2 16 км 9/0
[]
+4.5 +4.2 98 +1 +1 1022.0 976.9
Ю 4 16 км 10/10 50 м
[]
+6.8 +6.7 99 +3 +3 1021.5 976.5 +2.1 +11.0 0.3 6.3
ЮЗ 6 16 км {осадки} 9/0
[]
+12.4 +6.9 69 +10 +13 1019.3 974.5
ЮЗ 8 16 км ясно +16.9 +7.4 53 +16 +19 1017.9 973.3 +2.1 +17.4 6.3
ЮЗ 5 16 км 5/0
[]
+18.0 +9.1 56 +18 +22 1016.7 972.2
З 4 16 км 9/0
[]
+16.2 +7.4 56 +16 +16 1016.2 971.8 +2.1 +18.8 6.3
ЮЗ 2 16 км слаб. дождь 10/0
[]
+13.0 +7.6 70 +12 +12 1016.0 971.7
З 3 16 км 10/0
[]
+12.9 +5.6 61 +12 +12 1014.0 969.9 +2.1 +18.8 0.2 161
ЮЗ 3 16 км слаб. дождь 10/10 1000 м
[]
+10.1 +8.9 92 +8 +8 1013.8 969.7
ЮВ 4 4800 м слаб. дождь {осадки} 10/10 50 м
[]
+10.3 +10.2 99 +8 +8 1011.9 967.8 +9.7 +18.8 2 1.5
ЮЗ 5 2800 м слаб. дождь {осадки} 10/10 50 м
[]
+11.8 +11.7 99 +9 +9 1010.3 966.2
ЮЗ 4 4800 м дымка 10/10 200 м
[]
+13.4 +12.7 96 +12 +12 1008.4 964.4 +9.7 +13.5 2 3.1
З 3 16 км 10/10 300 м
[]
+15.1 +13.3 89 +15 +15 1007.8 963.8
Ю 2 16 км 10/10 600 м
[]
+14.2 +13.3 94 +14 +14 1006.8 962.8 +9.7 +15.5 3.1
С 1 6000 м дымка 5/5 600 м
[]
+11.7 +11.6 99 +11 +11 1006.3 962.3
С 2 9000 м дымка 10/10 300 м
[]
+12.7 +12.7 100 +12 +12 1004.9 961.1 +9.7 +15.5 3.1
Местоположение метеостанции Норт-Бей (Онтарио, Канада): широта 46.35 долгота -79.43 высота над уровнем моря 371 м.
В архиве по умолчанию представлена погода в Норт-Бее за последнюю неделю. Архивные данные за месяц целиком и за предыдущие месяцы, начиная с января 2011 года, Вы можете получить, выбрав интересующий диапазон дат из раскрывающегося списка и нажав кнопку "Найти!".
*Определитесь, кто Вы:
Внимание! Время в таблицах - всемирное. Для получения местного времени необходимо прибавить поправку, которая равна -5 ч.
Смотрите также архив погоды в соседних городах и на ближайших метеорологических станциях:
Партнеры нашего сайта:      
Пояснения к столбцам:
  • Ветер - указаны скорость ветра в м/с - средняя за 10 мин, порывы в срок и между сроками (в фигурных скобках) и направление, откуда дует ветер: С - северный,
  • СВ - северо-восточный, В - восточный, ЮВ - юго-восточный, Ю - южный, ЮЗ - юго-западный, З - западный, СЗ - северо-западный.
  • Видимость - горизонтальная дальность видимости в метрах или километрах. При видимости от 1 до 10 км при отсутствии осадков обычно наблюдается дымка, при ухудшении видимости до 1 км и менее - туман. В сухую погоду видимость может ухудшаться дымом, пылью или мглою.
  • Явления - указаны атмосферные явления, наблюдавшиеся в срок или в последний час перед сроком; фигурными скобками обозначены явления, наблюдавшиеся между сроками (за 1-3 часа до срока); квадратными скобками обозначены град или гололедные отложения с указанием их диаметра в мм.
  • Облачность - указаны через наклонную черту общая и нижняя облачность в баллах и высота нижней границы облаков в метрах; квадратными скобками обозначены формы облаков: Ci - перистые, Cs - перисто-слоистые, Cc - перисто-кучевые, Ac - высококучевые, As - высокослоистые, Sc - слоисто-кучевые, Ns - слоисто-дождевые, Cu - кучевые, Cb - кучево-дождевые. Подробнее классификацию облаков см. в Атласе облаков (PDF).
  • T - Температура воздуха - температура, измеренная на высоте 2 м над землей.
  • Td - Температура точки росы - температура, при понижении до которой содержащийся в воздухе водяной пар достигнет насыщения.
  • f - Относительная влажность воздуха - влажноcть воздуха, измеренная на высоте 2 м над землей.
  • Te - Эффективная температура - температура, которую ощущает одетый по сезону человек в тени. Характеристика душности погоды. При расчете учитывается влияние влажности воздуха и скорости ветра на теплоощущения человека.
  • Tes - Эффективная температура на солнце - температура, которую ощущает человек, с поправкой на солнечный нагрев. Характеристика знойности погоды. Зависит от высоты солнца над горизонтом, облачности и скорости ветра. Ночью, в пасмурную погоду, а также при ветре 12 м/с и более поправка равна нулю.
  • P - Атмосферное давление - приведенное к уровню моря атмосферное давление.
  • Po - Атмосферное давление - измеренное на уровне метеостанции атмосферное давление.
  • Tmin - Минимальная температура - минимум температуры воздуха на высоте 2 м над землей.
  • Tmax - Максимальная температура - максимум температуры воздуха на высоте 2 м над землей.
  • R - Количество осадков - Количество выпавших осадков за период времени, мм. При наведении курсора мыши на число - период времени, за который выпало указанное количество осадков.
  • R24 - Количество осадков - Количество выпавших осадков за 24 часа, мм.
  • S - Снежный покров - Высота снежного покрова, см. При наведении курсора мыши на число - состояние снежного покрова и степень покрытия местности в баллах.